Regional Weather Roundup
Issued by NWS

Home | Current Version | Previous Version | Text Only | Print | Product List | Glossary Off
Versions: 1 2 3 4 5 6 7 8 9 10 11 12 13 14 15 16 17 18 19 20 21 22 23 24 25 26 27 28 29 30 31 32 33 34 35 36 37 38 39 40 41 42 43 44 45 46 47 48 49 50

000
ASUS43 KIND 211209
RWRIN

WEATHER ROUNDUP FOR INDIANA
NATIONAL WEATHER SERVICE INDIANAPOLIS IN
800 AM EDT MON AUG 21 2017

NOTE: "FAIR" INDICATES FEW OR NO CLOUDS BELOW 12,000 FEET WITH NO
SIGNIFICANT WEATHER AND/OR OBSTRUCTIONS TO VISIBILITY.

* - STATION DOES NOT REPORT WEATHER SUCH AS PRECIPITATION OR FOG.

+ - STATION NOT QUALITY CONTROLLED BY THE NATIONAL WEATHER SERVICE.
    USE DATA WITH CAUTION...ESPECIALLY DEWPOINT AND RELATIVE
    HUMIDITY OBSERVATIONS.

INZ001>003-010>013-019-020-211300-
NORTHWEST INDIANA

CITY           SKY/WX    TMP DP  RH WIND       PRES   REMARKS
GARY /AIRPORT/ MOCLDY    73  70  88 CALM      30.06R
KNOX *+        CLOUDY    70  68  94 CALM      30.09R
LA PORTE +     CLOUDY    69  67  92 S3        30.09S
6HR MIN TEMP:  67; 6HR MAX TEMP:  73;

MICHIGAN CITY+ CLOUDY    72  64  78 S6        30.07F
MONTICELLO +   CLOUDY    68  67  96 SE5       30.09S
6HR MIN TEMP:  68; 6HR MAX TEMP:  74; 6HR PCP:  0.14;

RENSSELAER +   CLOUDY    70  64  83 SE3       30.10R
VALPARAISO     PTCLDY    71  68  90 S8        30.08S
6HR MIN TEMP:  70; 6HR MAX TEMP:  76; 6HR PCP: TRACE;


$$

LMZ046-743>745-211300-
SOUTHERN LAKE MICHIGAN

STATION/POSITION TIME  TEMP    WIND        PRES    WAVE
                       AIR SEA DIR/SP/G            HT
                 (UTC) (F)     (DEG/KT/KT) (MB)    (FT)
BURNS HARBOR     1140   73     180/ 10/ 15 1017.9F
MICHIGAN CITY    1140   72     150/ 14/ 18   N/A
5NW MICH CITY    1200   73 74  180/ 14/ 16   N/A     1

$$

INZ004-005-014>016-021>024-211300-
NORTH CENTRAL INDIANA

CITY           SKY/WX    TMP DP  RH WIND       PRES   REMARKS
ELKHART        MOSUNNY   72  66  83 CALM      30.09R
LOGANSPORT +   CLOUDY    66  64  94 SE6       30.11S
PERU/GRISSOM   MOSUNNY   68  68 100 S3        30.11R
6HR MIN TEMP:  67; 6HR MAX TEMP:  73; 6HR PCP:  0.49;

ROCHESTER +    MOSUNNY   72  72 100 E3        30.11R
SOUTH BEND     MOSUNNY   71  69  93 S6        30.09R
6HR MIN TEMP:  70; 6HR MAX TEMP:  75; 6HR PCP: TRACE;

WARSAW +       CLOUDY    68  68 100 CALM      30.11S FOG

$$

INZ006>009-017-018-025>027-211300-
NORTHEAST INDIANA

CITY           SKY/WX    TMP DP  RH WIND       PRES   REMARKS
AUBURN +       PTSUNNY   72  66  83 CALM      30.12S
FORT WAYNE     CLOUDY    73  66  78 CALM      30.12R
6HR MIN TEMP:  68; 6HR MAX TEMP:  73; 6HR PCP: TRACE;

HUNTINGTON +   MOSUNNY   68  67  96 CALM      30.13R
6HR MIN TEMP:  67; 6HR MAX TEMP:  73;


$$

INZ028-029-035-036-043>045-051>053-211300-
WEST CENTRAL INDIANA

CITY           SKY/WX    TMP DP  RH WIND       PRES   REMARKS
GREENCASTLE +  CLEAR     72  70  94 S3        30.13S
LAFAYETTE      CLOUDY    69  69 100 SE3       30.10R
6HR MIN TEMP:  67; 6HR MAX TEMP:  74; 6HR PCP:  0.48;

TERRE HAUTE    PTCLDY    73  70  90 CALM      30.12R
6HR MIN TEMP:  69; 6HR MAX TEMP:  73;


$$

INZ030>032-037>040-046>048-054>057-064-065-211300-
CENTRAL INDIANA

CITY           SKY/WX    TMP DP  RH WIND       PRES   REMARKS
CP ATTERBURY + CLEAR     64  64 100 CALM      30.15S
COLUMBUS       MOSUNNY   66  64  94 S5        30.15R
FRANKFORT +    MOCLDY    71  68  92 CALM      30.14R
6HR MIN TEMP:  69; 6HR MAX TEMP:  75;

GREENWOOD *+   CLEAR     70  67  91 S5        30.15S
6HR MIN TEMP:  68; 6HR MAX TEMP:  74;

INDIANAPOLIS   PTCLDY    72  68  87 SE5       30.12S
6HR MIN TEMP:  71; 6HR MAX TEMP:  77;

-EAGLE CREEK   CLEAR     73  68  84 CALM      30.12R
6HR MIN TEMP:  72; 6HR MAX TEMP:  76;

KOKOMO +       MOSUNNY   68  67  96 S6        30.13R
6HR MIN TEMP:  67; 6HR MAX TEMP:  73; 6HR PCP:  0.86;

MARION +       CLOUDY    70  66  88 S5        30.13S
MT COMFORT *+  SUNNY     68  68 100 CALM      30.14R
SHELBYVILLE    SUNNY     71  67  87 S6        30.14R
6HR MIN TEMP:  68; 6HR MAX TEMP:  74;

ZIONSVILLE +   CLEAR     71  69  93 S6        30.13F
6HR MIN TEMP:  66; 6HR MAX TEMP:  72;


$$

INZ033-034-041-042-049-050-058-059-211300-
EAST CENTRAL INDIANA

CITY           SKY/WX    TMP DP  RH WIND       PRES   REMARKS
MUNCIE         CLOUDY    75  67  76 S6        30.13R
6HR MIN TEMP:  73; 6HR MAX TEMP:  77;

RICHMOND +     MOSUNNY   68  68 100 CALM      30.17S

$$

INZ060-061-067>069-081>083-085>088-211300-
SOUTHWEST INDIANA

CITY           SKY/WX    TMP DP  RH WIND       PRES   REMARKS
EVANSVILLE     CLEAR     70  68  93 CALM      30.15R
6HR MIN TEMP:  69; 6HR MAX TEMP:  77;

HUNTINGBURG +  PTCLDY    69  68  96 MISG      30.16S
6HR MIN TEMP:  67; 6HR MAX TEMP:  74;

WASHINGTON +   CLEAR     69  67  93 MISG      30.14S
6HR MIN TEMP:  65; 6HR MAX TEMP:  72;


$$

INZ062-063-066-070>080-084-089>092-211300-
SOUTH CENTRAL AND SOUTHEAST INDIANA

CITY           SKY/WX    TMP DP  RH WIND       PRES   REMARKS
BEDFORD +      CLEAR     70  66  88 CALM      30.15R
BLOOMINGTON    PTCLDY    72  66  81 SW6       30.14S
6HR MIN TEMP:  66; 6HR MAX TEMP:  75;

MADISON *+     SUNNY     68  66  94 CALM      30.19S
NORTH VERNON + SUNNY     64  64 100 CALM      30.16S
SEYMOUR +      SUNNY     68  68 100 W3        30.15R

$$





USA.gov is the U.S. government's official web portal to all federal, state and local government web resources and services.